Accueil
METAR-TAF:

METAR-TAF

Aéroports :

Meiringen, Suisse

latitude: 46-44-25N, longitude: 8-06-36E, altitude: 577 m

Observation

Le bulletin a été fait il y a 23 minutes, à 14:50 UTC
Vent 11 kt de est/nord-est, variant entre nord/nord-est et est
Température 7°C
Humidité 81%
Pression 1019 hPa
Visibilité 10 km ou plus
Quelques nuages à une hauteur de 1100 ft
Nuages épars à une hauteur de 1900 ft
Ciel couvert à une hauteur de 3400 ft

METAR: LSMM 281450Z 06011KT 030V090 9999 FEW011 SCT019 OVC034 07/04 Q1019 RMK BLU

Heure: 16:13 (15:13 UTC)


TAF: absent

Observations et prévisions météorologiques de plus de 4000 aéroports (messages METAR et TAF).

Les stations disponibles sont représentées par des disques jaunes et rouges sur la carte.

Passer la souris dessus pour voir le nom de la station.

Cliquer dessus pour voir les observations et prévisions météorologiques.

Pour changer de carte: cliquez sur les boutons verts avec une croix noire pour zoomer, sur le bouton vert avec un tiret pour effectuer un zoom arrière, ou sur les flèches vertes pour les cartes adjacentes.


METAR-TAF: